Location: Saint Louis
(38.6272°N, 90.1978°W)
Time: 03:40:26
(UTC-05:00)

HST - Visible Passes

Search period start: 23 October 2014 00:00
Search period end: 02 November 2014 00:00
Orbit: 546 x 550 km, 28.5° (Epoch: 22 October)

Date Brightness Start Highest point End Pass type
(mag) Time Alt. Az. Time Alt. Az. Time Alt. Az.
24 Oct 3.3 19:56:53 10° S 19:57:30 11° S 19:57:30 11° S visible
25 Oct 3.0 19:48:44 10° SSW 19:50:43 14° SSE 19:50:43 14° SSE visible
26 Oct 2.8 19:40:55 10° SSW 19:43:26 16° SSE 19:43:54 15° SSE visible
27 Oct 2.7 19:33:14 10° SSW 19:36:01 17° S 19:37:03 16° SSE visible
28 Oct 2.7 19:25:38 10° SW 19:28:36 19° S 19:30:10 16° SE visible
29 Oct 2.7 19:18:07 10° SW 19:21:11 20° S 19:23:16 14° SE visible
30 Oct 2.7 19:10:39 10° SW 19:13:46 20° S 19:16:23 12° SE visible
31 Oct 2.8 19:03:14 10° SW 19:06:20 20° S 19:09:26 10° SE visible
31 Oct 3.8 20:44:59 10° SW 20:45:04 10° SW 20:45:04 10° SW visible
01 Nov 2.9 18:55:52 10° SW 18:58:53 19° S 19:01:55 10° SE visible
01 Nov 3.8 20:38:14 10° SW 20:38:14 10° SW 20:38:14 10° SW visible
